Location: Laterina
(43.5167°N, 11.7167°E)
Time: 16:37:13
(UTC+00:00)

Cosmos 2285 Rocket - Pass Details

Date: 24 September 2020
Orbit: 970 x 1000 km, 74.0° (Epoch: 25 October)

Event Time Altitude Azimuth Distance (km) Brightness Sun altitude
Rises 18:47:56 0° 204° (SSW) 3,652 7.1 -19.0°
Reaches altitude 10° 18:50:28 10° 206° (SSW) 2,711 6.4 -19.4°
Maximum altitude 18:56:45 75° 291° (WNW) 1,013 4.2 -20.5°
Drops below altitude 10° 19:03:07 10° 18° (NNE) 2,747 6.4 -21.6°
Sets 19:05:42 0° 20° (NNE) 3,703 7.1 -22.0°
